Hourly Data Report for September 14, 2017

All times are specified in Local Standard Time (LST). Add 1 hour to adjust for Daylight Saving Time where and when it is observed.

HALL BEACH A
NUNAVUT

68°46'33.000" N
81°14'33.000" W
9.10 m
2402354
71293
YUX

Download Data

Hourly Data (September 2017)
Hourly Data Report for September 14, 2017
Temp Definition
°C
Dew Point Temp Definition
°C
Rel Hum Definition
%
Wind Dir Definition
10's deg

Wind Spd Definition
km/h
Visibility Definition
km
Stn Press Definition
kPa
Hmdx Definition


Wind Chill Definition


Weather Definition


TIME
00:00 Legend Double Dagger -0.3 -1.3 93 1 15 16.1 101.43   -5 LegendNANA
01:00 Legend Double Dagger -0.5 -1.3 95 1 15 16.1 101.42   -5 LegendNANA
02:00 Legend Double Dagger -0.7 -1.4 95 2 13 16.1 101.43   -5 LegendNANA
03:00 Legend Double Dagger -0.8 -1.8 93 1 15 16.1 101.43   -5 LegendNANA
04:00 Legend Double Dagger -0.9 -1.6 95 1 13 16.1 101.45   -5 LegendNANA
05:00 Legend Double Dagger -1.0 -1.8 94 36 15 16.1 101.45   -6 LegendNANA
06:00 Legend Double Dagger -1.0 -1.7 95 1 17 16.1 101.45   -6 LegendNANA
07:00 Legend Double Dagger -0.5 -1.2 95 36 15 16.1 101.45   -5 LegendNANA
08:00 Legend Double Dagger 0.6 -0.3 94 1 18 16.1 101.42     LegendNANA
09:00 Legend Double Dagger 0.7 -0.3 93 1 17 16.1 101.40     LegendNANA
10:00 Legend Double Dagger 0.9 -0.6 90 36 18 16.1 101.38     LegendNANA
11:00 Legend Double Dagger 1.2 -1.0 85 36 21 16.1 101.33     LegendNANA
12:00 Legend Double Dagger 1.7 -1.1 82 1 22 16.1 101.27     LegendNANA
13:00 Legend Double Dagger 2.1 -1.1 80 36 21 16.1 101.23     LegendNANA
14:00 Legend Double Dagger 2.0 -1.7 77 36 22 16.1 101.19     LegendNANA
15:00 Legend Double Dagger 1.9 -1.6 78 1 26 16.1 101.18     LegendNANA
16:00 Legend Double Dagger 2.0 -1.5 77 36 21 16.1 101.17     LegendNANA
17:00 Legend Double Dagger 1.9 -1.4 79 1 17 16.1 101.14     LegendNANA
18:00 Legend Double Dagger 1.6 -1.8 78 36 18 16.1 101.11     LegendNANA
19:00 Legend Double Dagger 0.6 -2.0 83 34 17 16.1 101.08     LegendNANA
20:00 Legend Double Dagger 0.1 -2.1 85 34 17 16.1 101.06     LegendNANA
21:00 Legend Double Dagger 0.0 -2.2 85 35 17 16.1 101.03   -5 LegendNANA
22:00 Legend Double Dagger -0.2 -2.3 86 34 13 16.1 100.98   -4 LegendNANA
23:00 Legend Double Dagger -1.2 -2.2 93 32 15 16.1 100.96   -6 LegendNANA

Notes on Data Quality.

Legend

  • E = Estimated
  • M = Missing
  • NA = Not Available
  • ‡ = Partner data that is not subject to review by the National Climate Archives
Date modified: